Location: Corralito
(10.2667°N, 66.9500°W)
Time: 09:36:21
(UTC+00:00)

GPS 2-15 Rocket1 - Pass Details

Date: 11 December 2023
Orbit: 617 x 666 km, 19.8° (Epoch: 02 March)

Event Time Altitude Azimuth Distance (km) Brightness Sun altitude
Rises 00:22:38 0° 249° (WSW) 2,949 7.7 -31.9°
Reaches altitude 10° 00:25:02 10° 247° (WSW) 2,030 6.6 -32.5°
Enters shadow 00:27:24 29° 244° (WSW) 1,170 4.9 -33.0°
